Location: Pittman
(37.9557°N, 80.9209°W)
Time: 13:47:57
(UTC+00:00)

Envisat - Pass Details

Date: 21 April 2026
Orbit: 761 x 762 km, 98.4° (Epoch: 15 May)

Event Time Altitude Azimuth Distance (km) Brightness Sun altitude
Rises 07:33:07 0° 19° (NNE) 3,230 7.2 -31.5°
Reaches altitude 10° 07:35:31 10° 25° (NNE) 2,299 6.3 -31.2°
Enters shadow 07:39:58 46° 84° (E) 1,012 3.8 -30.7°
